This demonstration page uses our WeatherBlox Daily Observations layout. Learn more.

Left ArrowRight Arrow

44.89941, -97.11507

Hourly Observations for June 30, 2018

Temp ( °F °C ) Dew Point ( °F °C ) Humidity (%) Winds ( mph kmh ) Pressure ( in mb ) Visibility ( mi km ) Precip ( " mm )
12:04 am 00:04 Mostly Cloudy 73 22.8 70 21.1 90 90 NW 20 31 29.71 1006 10 16 0.00 0.00
12:53 am 00:53 Mostly Cloudy 72 22.2 67 19.4 84 84 NNW 18 30 29.70 1006 10 16 0.00 0.00
1:03 am 01:03 Partly Cloudy 72 22.2 67 19.4 84 84 NNW 14 22 29.68 1005 10 16 0.00 0.00
1:53 am 01:53 Clear 70 21.1 66 18.9 87 87 WNW 5 7 29.70 1006 10 16 0.00 0.00
2:53 am 02:53 Clear 68 20 66 18.9 93 93 E 3 6 29.67 1005 10 16 0.00 0.00
3:53 am 03:53 Clear 67 19.4 66 18.9 97 97 S 7 11 29.70 1006 10 16 0.00 0.00
4:53 am 04:53 Clear 67 19.4 66 18.9 97 97 WNW 7 11 29.76 1008 10 16 0.00 0.00
5:53 am 05:53 Sunny 68 20 67 19.4 96 96 W 12 19 29.81 1010 10 16 0.00 0.00
6:53 am 06:53 Sunny 69 20.6 62 16.7 78 78 WSW 15 24 29.84 1011 10 16 0.00 0.00
7:53 am 07:53 Sunny 70 21.1 60 15.6 71 71 SW 8 13 29.78 1008 10 16 0.00 0.03
8:53 am 08:53 Sunny 68 20 62 16.7 81 81 W 13 20 29.81 1009 10 16 0.00 0.00
9:53 am 09:53 Sunny 68 20 64 17.8 87 87 W 10 17 29.83 1010 10 16 0.00 0.00
10:53 am 10:53 Partly Cloudy 68 20 65 18.3 90 90 W 10 17 29.86 1011 10 16 0.00 0.00
11:34 am 11:34 Cloudy 67 19.4 65 18.3 93 93 W 10 17 29.88 1012 10 16 0.00 0.00
11:44 am 11:44 Cloudy with Light Rain 67 19.4 65 18.3 93 93 WSW 9 15 29.88 1012 10 16 0.00 0.03
11:53 am 11:53 Cloudy 67 19.4 65 18.3 93 93 WSW 10 17 29.87 1012 10 16 0.00 0.03
12:53 pm 12:53 Partly Cloudy 69 20.6 65 18.3 87 87 SW 7 11 29.86 1011 10 16 0.00 0.00
1:53 pm 13:53 Sunny 73 22.8 66 18.9 79 79 WNW 9 15 29.84 1011 10 16 0.00 0.00
2:53 pm 14:53 Sunny 75 23.9 65 18.3 71 71 NW 12 19 29.84 1010 10 16 0.00 0.00
3:53 pm 15:53 Sunny 77 25 65 18.3 66 66 WNW 12 19 29.84 1011 10 16 0.00 0.00
4:53 pm 16:53 Partly Cloudy 77 25 64 17.8 64 64 WNW 8 13 29.86 1011 10 16 0.00 0.00
5:53 pm 17:53 Mostly Sunny 76 24.4 63 17.2 64 64 NW 7 11 29.85 1011 10 16 0.00 0.00
6:53 pm 18:53 Mostly Cloudy 75 23.9 62 16.7 64 64 NW 5 7 29.84 1011 10 16 0.00 0.00
7:53 pm 19:53 Mostly Cloudy 74 23.3 62 16.7 67 67 NW 3 6 29.83 1010 10 16 0.00 0.00
8:53 pm 20:53 Sunny 71 21.7 64 17.8 79 79 N 6 9 29.83 1010 10 16 0.00 0.00
9:53 pm 21:53 Mostly Cloudy 71 21.7 63 17.2 76 76 NW 7 11 29.85 1011 10 16 0.00 0.00
10:53 pm 22:53 Mostly Cloudy 67 19.4 64 17.8 91 91 N 5 7 29.85 1011 10 16 0.03 0.76
11:53 pm 23:53 Partly Cloudy 68 20 64 17.8 87 87 Calm 29.85 1011 10 16 0.00 0.00

Powered by AerisWeather